| time (UTC) | temp F | wind direction | speed MPH | gust MPH | rain 1hr in | rain 24hr in | rain mn in | humidity % | barometer mb |
| 20260509113107 | 54 | 164 | 0.0 | 2.0 | 0.00 | 0.00 | 0.00 | 64 | 1009.1 |
| 20260509112603 | 54 | 180 | 0.0 | 0.0 | 0.00 | 0.00 | 0.00 | 64 | 1009.4 |
| 20260509112100 | 54 | 169 | 0.0 | 1.0 | 0.00 | 0.00 | 0.00 | 64 | 1009.1 |
| 20260509111557 | 53 | 96 | 0.0 | 0.0 | 0.00 | 0.00 | 0.00 | 64 | 1009.1 |
| 20260509111054 | 54 | 90 | 0.0 | 2.0 | 0.00 | 0.00 | 0.00 | 63 | 1009.1 |
| 20260509110551 | 55 | 99 | 0.0 | 1.0 | 0.00 | 0.00 | 0.00 | 61 | 1008.9 |
| 20260509110048 | 55 | 74 | 0.0 | 3.0 | 0.00 | 0.00 | 0.00 | 60 | 1009.4 |
| 20260509105546 | 55 | 41 | 0.0 | 2.0 | 0.00 | 0.00 | 0.00 | 59 | 1009.4 |
| 20260509105044 | 55 | 300 | 0.0 | 0.0 | 0.00 | 0.00 | 0.00 | 60 | 1009.0 |
| 20260509104540 | 55 | 18 | 0.0 | 0.0 | 0.00 | 0.00 | 0.00 | 60 | 1009.0 |
| 20260509104037 | 55 | 352 | 0.0 | 0.0 | 0.00 | 0.00 | 0.00 | 62 | 1009.1 |
| 20260509103535 | 55 | 74 | 0.0 | 2.0 | 0.00 | 0.00 | 0.00 | 60 | 1009.2 |
| 20260509103033 | 55 | 117 | 0.0 | 1.0 | 0.00 | 0.00 | 0.00 | 59 | 1009.1 |
| 20260509102530 | 56 | 229 | 0.0 | 0.0 | 0.00 | 0.00 | 0.00 | 58 | 1009.1 |
| 20260509102027 | 56 | 270 | 0.0 | 2.0 | 0.00 | 0.00 | 0.00 | 57 | 1009.0 |
| 20260509101523 | 55 | 35 | 1.0 | 4.0 | 0.00 | 0.00 | 0.00 | 59 | 1009.1 |
| 20260509101020 | 56 | 22 | 2.0 | 2.0 | 0.00 | 0.00 | 0.00 | 57 | 1009.1 |
| 20260509100517 | 56 | 261 | 0.0 | 0.0 | 0.00 | 0.00 | 0.00 | 56 | 1009.0 |
| 20260509100015 | 55 | 0 | 0.0 | 1.0 | 0.00 | 0.00 | 0.00 | 56 | 1009.1 |
| 20260509095511 | 55 | 26 | 1.0 | 3.0 | 0.00 | 0.00 | 0.00 | 58 | 1009.2 |
| 20260509095009 | 56 | 77 | 0.0 | 3.0 | 0.00 | 0.00 | 0.00 | 57 | 1009.1 |
| 20260509094505 | 56 | 357 | 2.0 | 4.0 | 0.00 | 0.00 | 0.00 | 56 | 1009.2 |
| 20260509094002 | 56 | 82 | 0.0 | 1.0 | 0.00 | 0.00 | 0.00 | 55 | 1009.0 |
| 20260509093500 | 56 | 97 | 0.0 | 1.0 | 0.00 | 0.00 | 0.00 | 55 | 1009.0 |
| 20260509092957 | 55 | 311 | 3.0 | 3.0 | 0.00 | 0.00 | 0.00 | 57 | 1009.1 |
| 20260509092455 | 56 | 23 | 0.0 | 1.0 | 0.00 | 0.00 | 0.00 | 54 | 1008.9 |
| 20260509091954 | 55 | 49 | 0.0 | 4.0 | 0.00 | 0.00 | 0.00 | 57 | 1009.0 |
| 20260509091450 | 57 | 14 | 2.0 | 3.0 | 0.00 | 0.00 | 0.00 | 54 | 1008.9 |
| 20260509090947 | 58 | 41 | 0.0 | 2.0 | 0.00 | 0.00 | 0.00 | 51 | 1008.8 |
| 20260509090445 | 57 | 0 | 1.0 | 3.0 | 0.00 | 0.00 | 0.00 | 52 | 1009.1 |
| 20260509085942 | 57 | 7 | 0.0 | 3.0 | 0.00 | 0.00 | 0.00 | 52 | 1008.8 |
| 20260509085439 | 57 | 57 | 2.0 | 4.0 | 0.00 | 0.00 | 0.00 | 53 | 1009.1 |
| 20260509084935 | 60 | 72 | 3.0 | 3.0 | 0.00 | 0.00 | 0.00 | 47 | 1008.9 |
| 20260509084432 | 60 | 234 | 1.0 | 2.0 | 0.00 | 0.00 | 0.00 | 47 | 1009.1 |
| 20260509083930 | 59 | 198 | 0.0 | 2.0 | 0.00 | 0.00 | 0.00 | 49 | 1009.1 |
| 20260509083426 | 59 | 111 | 0.0 | 1.0 | 0.00 | 0.00 | 0.00 | 48 | 1008.9 |
| 20260509082923 | 60 | 277 | 1.0 | 3.0 | 0.00 | 0.00 | 0.00 | 47 | 1009.0 |
| 20260509082421 | 62 | 212 | 0.0 | 4.0 | 0.00 | 0.00 | 0.00 | 44 | 1009.0 |
| 20260509081917 | 62 | 187 | 0.0 | 2.0 | 0.00 | 0.00 | 0.00 | 40 | 1009.1 |
| 20260509081415 | 62 | 277 | 0.0 | 0.0 | 0.00 | 0.00 | 0.00 | 42 | 1009.0 |
| 20260509080912 | 61 | 225 | 0.0 | 3.0 | 0.00 | 0.00 | 0.00 | 44 | 1008.9 |
| 20260509080410 | 60 | 19 | 0.0 | 2.0 | 0.00 | 0.00 | 0.00 | 45 | 1009.0 |
| 20260509075908 | 61 | 342 | 3.0 | 6.0 | 0.00 | 0.00 | 0.00 | 43 | 1009.0 |
| 20260509075404 | 62 | 2 | 4.0 | 5.0 | 0.00 | 0.00 | 0.00 | 42 | 1009.0 |
| 20260509074902 | 62 | 348 | 3.0 | 6.0 | 0.00 | 0.00 | 0.00 | 42 | 1009.0 |
| 20260509074400 | 63 | 354 | 6.0 | 7.0 | 0.00 | 0.00 | 0.00 | 39 | 1008.9 |
| 20260509073855 | 61 | 2 | 4.0 | 4.0 | 0.00 | 0.00 | 0.00 | 43 | 1008.8 |
| 20260509073352 | 60 | 7 | 0.0 | 7.0 | 0.00 | 0.00 | 0.00 | 44 | 1009.4 |
| 20260509072849 | 62 | 3 | 5.0 | 5.0 | 0.00 | 0.00 | 0.00 | 42 | 1009.1 |
| 20260509072345 | 60 | 90 | 0.0 | 1.0 | 0.00 | 0.00 | 0.00 | 44 | 1009.2 |
| 20260509071842 | 61 | 109 | 3.0 | 3.0 | 0.00 | 0.00 | 0.00 | 44 | 1008.9 |
| 20260509071339 | 61 | 109 | 1.0 | 5.0 | 0.00 | 0.00 | 0.00 | 44 | 1009.2 |
| 20260509070836 | 61 | 81 | 0.0 | 3.0 | 0.00 | 0.00 | 0.00 | 44 | 1009.2 |
| 20260509070333 | 63 | 26 | 3.0 | 4.0 | 0.00 | 0.00 | 0.00 | 41 | 1009.0 |
| 20260509065829 | 63 | 49 | 3.0 | 5.0 | 0.00 | 0.00 | 0.00 | 41 | 1009.0 |
| 20260509065325 | 63 | 46 | 5.0 | 5.0 | 0.00 | 0.00 | 0.00 | 41 | 1008.8 |
| 20260509064821 | 64 | 36 | 3.0 | 3.0 | 0.00 | 0.00 | 0.00 | 39 | 1008.9 |
| 20260509064319 | 61 | 29 | 10.0 | 22.0 | 0.00 | 0.00 | 0.00 | 43 | 1008.7 |
| 20260509063817 | 62 | 66 | 5.0 | 5.0 | 0.00 | 0.00 | 0.00 | 42 | 1008.5 |
| 20260509063313 | 64 | 270 | 0.0 | 2.0 | 0.00 | 0.00 | 0.00 | 37 | 1008.4 |
| 20260509062810 | 65 | 301 | 2.0 | 3.0 | 0.00 | 0.00 | 0.00 | 36 | 1008.6 |
| 20260509062308 | 66 | 295 | 2.0 | 3.0 | 0.00 | 0.00 | 0.00 | 35 | 1008.6 |
| 20260509061804 | 66 | 0 | 0.0 | 3.0 | 0.00 | 0.00 | 0.00 | 35 | 1008.4 |
| 20260509061302 | 66 | 213 | 2.0 | 5.0 | 0.00 | 0.00 | 0.00 | 35 | 1008.4 |
| 20260509060759 | 66 | 292 | 3.0 | 4.0 | 0.00 | 0.00 | 0.00 | 34 | 1008.5 |
| 20260509060255 | 67 | 270 | 0.0 | 2.0 | 0.00 | 0.00 | 0.00 | 34 | 1008.5 |
| 20260509055751 | 67 | 285 | 0.0 | 2.0 | 0.00 | 0.00 | 0.00 | 33 | 1008.5 |
| 20260509055247 | 68 | 293 | 2.0 | 6.0 | 0.00 | 0.00 | 0.00 | 32 | 1008.4 |
| 20260509054744 | 68 | 285 | 4.0 | 6.0 | 0.00 | 0.00 | 0.00 | 32 | 1008.7 |
| 20260509054241 | 68 | 264 | 1.0 | 3.0 | 0.00 | 0.00 | 0.00 | 32 | 1008.6 |
| 20260509053739 | 68 | 352 | 0.0 | 3.0 | 0.00 | 0.00 | 0.00 | 32 | 1008.6 |
| 20260509053236 | 66 | 243 | 1.0 | 2.0 | 0.00 | 0.00 | 0.00 | 35 | 1008.8 |
| 20260509052734 | 65 | 110 | 2.0 | 3.0 | 0.00 | 0.00 | 0.00 | 37 | 1008.6 |
| 20260509052231 | 69 | 102 | 0.0 | 3.0 | 0.00 | 0.00 | 0.00 | 30 | 1008.6 |
| 20260509051729 | 70 | 225 | 3.0 | 5.0 | 0.00 | 0.00 | 0.00 | 30 | 1008.6 |
| 20260509051227 | 69 | 292 | 2.0 | 4.0 | 0.00 | 0.00 | 0.00 | 30 | 1008.6 |
| 20260509050723 | 69 | 279 | 2.0 | 4.0 | 0.00 | 0.00 | 0.00 | 30 | 1008.4 |
| 20260509050219 | 68 | 254 | 1.0 | 4.0 | 0.00 | 0.00 | 0.00 | 31 | 1008.4 |
| 20260509045717 | 68 | 285 | 1.0 | 3.0 | 0.00 | 0.00 | 0.00 | 33 | 1008.5 |
| 20260509045214 | 67 | 290 | 2.0 | 3.0 | 0.00 | 0.00 | 0.00 | 35 | 1008.7 |
| 20260509044711 | 67 | 278 | 1.0 | 3.0 | 0.00 | 0.00 | 0.00 | 36 | 1008.5 |
| 20260509044209 | 67 | 270 | 0.0 | 3.0 | 0.00 | 0.00 | 0.00 | 37 | 1008.6 |
| 20260509043705 | 66 | 279 | 0.0 | 3.0 | 0.00 | 0.00 | 0.00 | 40 | 1008.6 |
| 20260509043201 | 67 | 277 | 1.0 | 3.0 | 0.00 | 0.00 | 0.00 | 37 | 1008.7 |
| 20260509042657 | 67 | 290 | 2.0 | 3.0 | 0.00 | 0.00 | 0.00 | 37 | 1008.8 |
| 20260509042153 | 68 | 286 | 1.0 | 4.0 | 0.00 | 0.00 | 0.00 | 36 | 1008.6 |
| 20260509041650 | 69 | 292 | 2.0 | 3.0 | 0.00 | 0.00 | 0.00 | 34 | 1008.7 |
| 20260509041148 | 69 | 264 | 0.0 | 3.0 | 0.00 | 0.00 | 0.00 | 33 | 1008.4 |
| 20260509040646 | 70 | 243 | 2.0 | 3.0 | 0.00 | 0.00 | 0.00 | 31 | 1008.6 |
| 20260509040142 | 71 | 249 | 1.0 | 3.0 | 0.00 | 0.00 | 0.00 | 32 | 1008.6 |
| 20260509035639 | 71 | 255 | 1.0 | 3.0 | 0.00 | 0.00 | 0.00 | 32 | 1008.7 |
| 20260509035136 | 71 | 233 | 2.0 | 2.0 | 0.00 | 0.00 | 0.00 | 32 | 1008.6 |
| 20260509034634 | 71 | 240 | 0.0 | 2.0 | 0.00 | 0.00 | 0.00 | 33 | 1008.6 |
| 20260509034130 | 70 | 180 | 0.0 | 3.0 | 0.00 | 0.00 | 0.00 | 35 | 1008.5 |
| 20260509033627 | 70 | 243 | 0.0 | 2.0 | 0.00 | 0.00 | 0.00 | 38 | 1008.5 |
| 20260509033124 | 70 | 286 | 0.0 | 1.0 | 0.00 | 0.00 | 0.00 | 40 | 1008.4 |
| 20260509032622 | 71 | 250 | 2.0 | 2.0 | 0.00 | 0.00 | 0.00 | 38 | 1008.3 |
| 20260509032118 | 71 | 257 | 2.0 | 3.0 | 0.00 | 0.00 | 0.00 | 36 | 1008.4 |
| 20260509031617 | 71 | 233 | 2.0 | 2.0 | 0.00 | 0.00 | 0.00 | 31 | 1008.2 |
| 20260509031114 | 74 | 154 | 2.0 | 5.0 | 0.00 | 0.00 | 0.00 | 27 | 1008.2 |
| 20260509030612 | 76 | 194 | 3.0 | 4.0 | 0.00 | 0.00 | 0.00 | 24 | 1007.9 |
| 20260509030108 | 75 | 162 | 2.0 | 3.0 | 0.00 | 0.00 | 0.00 | 24 | 1007.8 |
| 20260509025604 | 75 | 192 | 0.0 | 3.0 | 0.00 | 0.00 | 0.00 | 26 | 1007.8 |
| 20260509025100 | 75 | 215 | 0.0 | 2.0 | 0.00 | 0.00 | 0.00 | 26 | 1007.7 |
| 20260509024556 | 74 | 220 | 2.0 | 2.0 | 0.00 | 0.00 | 0.00 | 28 | 1007.8 |
| 20260509024052 | 75 | 220 | 2.0 | 3.0 | 0.00 | 0.00 | 0.00 | 27 | 1007.8 |
| 20260509023550 | 77 | 90 | 0.0 | 0.0 | 0.00 | 0.00 | 0.00 | 23 | 1007.5 |
| 20260509023047 | 77 | 90 | 0.0 | 1.0 | 0.00 | 0.00 | 0.00 | 23 | 1007.5 |
| 20260509022543 | 77 | 90 | 0.0 | 0.0 | 0.00 | 0.00 | 0.00 | 22 | 1007.5 |
| 20260509022041 | 77 | 90 | 0.0 | 1.0 | 0.00 | 0.00 | 0.00 | 22 | 1007.4 |
| 20260509021538 | 77 | 90 | 0.0 | 0.0 | 0.00 | 0.00 | 0.00 | 21 | 1007.3 |
| 20260509021035 | 77 | 83 | 0.0 | 1.0 | 0.00 | 0.00 | 0.00 | 22 | 1007.5 |
| 20260509020533 | 77 | 106 | 0.0 | 2.0 | 0.00 | 0.00 | 0.00 | 23 | 1007.1 |
| 20260509020030 | 78 | 81 | 0.0 | 0.0 | 0.00 | 0.00 | 0.00 | 24 | 1007.3 |
| 20260509015529 | 79 | 81 | 0.0 | 0.0 | 0.00 | 0.00 | 0.00 | 22 | 1007.1 |
| 20260509015026 | 79 | 90 | 0.0 | 0.0 | 0.00 | 0.00 | 0.00 | 21 | 1006.9 |
| 20260509014522 | 80 | 99 | 0.0 | 0.0 | 0.00 | 0.00 | 0.00 | 22 | 1007.2 |
| 20260509014018 | 80 | 99 | 0.0 | 0.0 | 0.00 | 0.00 | 0.00 | 21 | 1006.9 |
| 20260509013516 | 81 | 99 | 0.0 | 1.0 | 0.00 | 0.00 | 0.00 | 21 | 1006.8 |
| 20260509013011 | 82 | 90 | 0.0 | 0.0 | 0.00 | 0.00 | 0.00 | 20 | 1006.5 |
| 20260509012508 | 82 | 29 | 0.0 | 0.0 | 0.00 | 0.00 | 0.00 | 18 | 1006.7 |
| 20260509012005 | 83 | 29 | 0.0 | 0.0 | 0.00 | 0.00 | 0.00 | 18 | 1006.7 |
| 20260509011503 | 84 | 29 | 0.0 | 0.0 | 0.00 | 0.00 | 0.00 | 16 | 1006.8 |
| 20260509011000 | 84 | 29 | 0.0 | 0.0 | 0.00 | 0.00 | 0.00 | 17 | 1006.7 |
| 20260509010457 | 84 | 8 | 0.0 | 2.0 | 0.00 | 0.00 | 0.00 | 16 | 1006.7 |
| 20260509005954 | 85 | 355 | 2.0 | 3.0 | 0.00 | 0.00 | 0.00 | 16 | 1006.4 |
| 20260509005452 | 86 | 33 | 2.0 | 3.0 | 0.00 | 0.00 | 0.00 | 16 | 1006.5 |
| 20260509004952 | 86 | 57 | 0.0 | 2.0 | 0.00 | 0.00 | 0.00 | 15 | 1006.4 |
| 20260509004449 | 86 | 28 | 2.0 | 3.0 | 0.00 | 0.00 | 0.00 | 15 | 1006.3 |
| 20260509003946 | 86 | 113 | 2.0 | 5.0 | 0.00 | 0.00 | 0.00 | 14 | 1006.5 |
| 20260509003445 | 88 | 357 | 3.0 | 3.0 | 0.00 | 0.00 | 0.00 | 13 | 1006.6 |
| 20260509002941 | 88 | 54 | 0.0 | 3.0 | 0.00 | 0.00 | 0.00 | 14 | 1006.4 |
| 20260509002439 | 87 | 41 | 2.0 | 7.0 | 0.00 | 0.00 | 0.00 | 13 | 1006.2 |
| 20260509001936 | 88 | 52 | 5.0 | 9.0 | 0.00 | 0.00 | 0.00 | 13 | 1006.3 |
| 20260509001432 | 88 | 39 | 6.0 | 7.0 | 0.00 | 0.00 | 0.00 | 13 | 1006.4 |
| 20260509000929 | 89 | 52 | 5.0 | 6.0 | 0.00 | 0.00 | 0.00 | 13 | 1006.3 |
| 20260509000427 | 89 | 5 | 3.0 | 3.0 | 0.00 | 0.00 | 0.00 | 12 | 1006.3 |
| 20260508235923 | 90 | 90 | 0.0 | 3.0 | 0.00 | 0.00 | 0.00 | 13 | 1006.5 |
| 20260508235421 | 88 | 90 | 0.0 | 3.0 | 0.00 | 0.00 | 0.00 | 12 | 1006.2 |
| 20260508234917 | 88 | 50 | 3.0 | 7.0 | 0.00 | 0.00 | 0.00 | 13 | 1006.4 |
| 20260508234414 | 89 | 42 | 3.0 | 6.0 | 0.00 | 0.00 | 0.00 | 13 | 1006.2 |
| 20260508233912 | 88 | 41 | 4.0 | 7.0 | 0.00 | 0.00 | 0.00 | 12 | 1006.2 |
| 20260508233411 | 89 | 29 | 3.0 | 12.0 | 0.00 | 0.00 | 0.00 | 13 | 1006.4 |
| 20260508232908 | 90 | 10 | 5.0 | 6.0 | 0.00 | 0.00 | 0.00 | 13 | 1006.4 |
| 20260508232404 | 91 | 101 | 0.0 | 5.0 | 0.00 | 0.00 | 0.00 | 12 | 1006.2 |
| 20260508231902 | 91 | 63 | 1.0 | 3.0 | 0.00 | 0.00 | 0.00 | 12 | 1006.4 |
| 20260508231359 | 91 | 90 | 2.0 | 3.0 | 0.00 | 0.00 | 0.00 | 12 | 1006.2 |
| 20260508230856 | 90 | 286 | 1.0 | 5.0 | 0.00 | 0.00 | 0.00 | 12 | 1006.3 |
| 20260508230352 | 89 | 210 | 2.0 | 6.0 | 0.00 | 0.00 | 0.00 | 12 | 1006.4 |
| 20260508225850 | 90 | 328 | 0.0 | 3.0 | 0.00 | 0.00 | 0.00 | 12 | 1006.2 |
| 20260508225346 | 89 | 0 | 4.0 | 6.0 | 0.00 | 0.00 | 0.00 | 12 | 1006.2 |
| 20260508224844 | 89 | 19 | 4.0 | 7.0 | 0.00 | 0.00 | 0.00 | 12 | 1006.3 |
| 20260508224341 | 91 | 270 | 3.0 | 4.0 | 0.00 | 0.00 | 0.00 | 11 | 1006.3 |
| 20260508223839 | 89 | 345 | 4.0 | 13.0 | 0.00 | 0.00 | 0.00 | 13 | 1006.2 |
| 20260508223336 | 91 | 336 | 0.0 | 5.0 | 0.00 | 0.00 | 0.00 | 11 | 1006.2 |
| 20260508222833 | 90 | 325 | 3.0 | 8.0 | 0.00 | 0.00 | 0.00 | 11 | 1006.3 |
| 20260508222330 | 91 | 340 | 1.0 | 8.0 | 0.00 | 0.00 | 0.00 | 12 | 1006.4 |
| 20260508221827 | 91 | 32 | 2.0 | 3.0 | 0.00 | 0.00 | 0.00 | 12 | 1006.4 |
| 20260508221322 | 89 | 165 | 1.0 | 7.0 | 0.00 | 0.00 | 0.00 | 13 | 1006.3 |
| 20260508220819 | 91 | 0 | 0.0 | 4.0 | 0.00 | 0.00 | 0.00 | 13 | 1006.3 |
| 20260508220315 | 91 | 246 | 0.0 | 4.0 | 0.00 | 0.00 | 0.00 | 13 | 1006.4 |
| 20260508215812 | 90 | 277 | 0.0 | 5.0 | 0.00 | 0.00 | 0.00 | 13 | 1006.6 |
| 20260508215309 | 91 | 90 | 1.0 | 2.0 | 0.00 | 0.00 | 0.00 | 13 | 1006.4 |
| 20260508214806 | 90 | 229 | 2.0 | 5.0 | 0.00 | 0.00 | 0.00 | 14 | 1006.6 |
| 20260508214303 | 90 | 234 | 3.0 | 6.0 | 0.00 | 0.00 | 0.00 | 14 | 1006.4 |
| 20260508213759 | 90 | 270 | 3.0 | 3.0 | 0.00 | 0.00 | 0.00 | 13 | 1006.7 |
| 20260508213256 | 89 | 161 | 3.0 | 5.0 | 0.00 | 0.00 | 0.00 | 14 | 1006.9 |
| 20260508212753 | 88 | 203 | 2.0 | 4.0 | 0.00 | 0.00 | 0.00 | 14 | 1006.9 |
| 20260508212249 | 88 | 171 | 2.0 | 5.0 | 0.00 | 0.00 | 0.00 | 15 | 1006.9 |
| 20260508211745 | 89 | 112 | 3.0 | 4.0 | 0.00 | 0.00 | 0.00 | 15 | 1006.9 |
| 20260508211240 | 88 | 169 | 4.0 | 6.0 | 0.00 | 0.00 | 0.00 | 14 | 1006.7 |
| 20260508210738 | 88 | 155 | 3.0 | 4.0 | 0.00 | 0.00 | 0.00 | 15 | 1006.9 |
| 20260508210235 | 88 | 270 | 0.0 | 4.0 | 0.00 | 0.00 | 0.00 | 14 | 1006.9 |
| 20260508205732 | 87 | 168 | 2.0 | 6.0 | 0.00 | 0.00 | 0.00 | 15 | 1007.3 |
| 20260508205228 | 87 | 278 | 0.0 | 9.0 | 0.00 | 0.00 | 0.00 | 15 | 1007.1 |
| 20260508204725 | 89 | 241 | 3.0 | 3.0 | 0.00 | 0.00 | 0.00 | 15 | 1007.3 |
| 20260508204221 | 87 | 23 | 1.0 | 3.0 | 0.00 | 0.00 | 0.00 | 16 | 1007.3 |
| 20260508203717 | 85 | 225 | 5.0 | 6.0 | 0.00 | 0.00 | 0.00 | 17 | 1007.4 |
| 20260508203213 | 86 | 135 | 2.0 | 7.0 | 0.00 | 0.00 | 0.00 | 17 | 1007.5 |
| 20260508202710 | 87 | 168 | 2.0 | 5.0 | 0.00 | 0.00 | 0.00 | 17 | 1007.6 |
| 20260508202207 | 86 | 98 | 5.0 | 6.0 | 0.00 | 0.00 | 0.00 | 17 | 1007.7 |
| 20260508201704 | 86 | 130 | 4.0 | 9.0 | 0.00 | 0.00 | 0.00 | 18 | 1007.7 |
| 20260508201200 | 87 | 173 | 5.0 | 11.0 | 0.00 | 0.00 | 0.00 | 17 | 1007.9 |
| 20260508200657 | 87 | 240 | 3.0 | 5.0 | 0.00 | 0.00 | 0.00 | 18 | 1008.0 |
| 20260508200153 | 87 | 270 | 0.0 | 5.0 | 0.00 | 0.00 | 0.00 | 19 | 1007.9 |
| 20260508195650 | 87 | 150 | 2.0 | 6.0 | 0.00 | 0.00 | 0.00 | 19 | 1008.2 |
| 20260508195147 | 86 | 117 | 0.0 | 6.0 | 0.00 | 0.00 | 0.00 | 20 | 1008.0 |
| 20260508194643 | 86 | 297 | 5.0 | 5.0 | 0.00 | 0.00 | 0.00 | 22 | 1008.2 |
| 20260508194140 | 86 | 8 | 2.0 | 5.0 | 0.00 | 0.00 | 0.00 | 23 | 1008.2 |
| 20260508193637 | 84 | 191 | 3.0 | 7.0 | 0.00 | 0.00 | 0.00 | 23 | 1008.4 |
| 20260508193134 | 86 | 165 | 4.0 | 7.0 | 0.00 | 0.00 | 0.00 | 22 | 1008.5 |
| 20260508192630 | 84 | 49 | 2.0 | 6.0 | 0.00 | 0.00 | 0.00 | 23 | 1008.4 |
| 20260508192128 | 84 | 283 | 1.0 | 4.0 | 0.00 | 0.00 | 0.00 | 23 | 1008.7 |
| 20260508191624 | 84 | 75 | 1.0 | 4.0 | 0.00 | 0.00 | 0.00 | 24 | 1008.7 |
| 20260508191121 | 84 | 210 | 2.0 | 4.0 | 0.00 | 0.00 | 0.00 | 26 | 1008.6 |
| 20260508190619 | 84 | 166 | 5.0 | 6.0 | 0.00 | 0.00 | 0.00 | 26 | 1008.6 |
| 20260508190115 | 83 | 106 | 5.0 | 5.0 | 0.00 | 0.00 | 0.00 | 26 | 1008.8 |
| 20260508185612 | 84 | 185 | 3.0 | 5.0 | 0.00 | 0.00 | 0.00 | 26 | 1008.9 |
| 20260508185109 | 82 | 151 | 0.0 | 5.0 | 0.00 | 0.00 | 0.00 | 26 | 1008.9 |
| 20260508184606 | 81 | 156 | 6.0 | 7.0 | 0.00 | 0.00 | 0.00 | 27 | 1008.9 |
| 20260508184103 | 83 | 204 | 2.0 | 4.0 | 0.00 | 0.00 | 0.00 | 26 | 1009.1 |
| 20260508183600 | 82 | 0 | 4.0 | 4.0 | 0.00 | 0.00 | 0.00 | 27 | 1009.2 |
| 20260508183056 | 81 | 320 | 0.0 | 3.0 | 0.00 | 0.00 | 0.00 | 27 | 1009.2 |
| 20260508182552 | 81 | 189 | 3.0 | 5.0 | 0.00 | 0.00 | 0.00 | 28 | 1009.5 |
| 20260508182049 | 82 | 229 | 3.0 | 5.0 | 0.00 | 0.00 | 0.00 | 29 | 1009.5 |
| 20260508181544 | 81 | 235 | 4.0 | 5.0 | 0.00 | 0.00 | 0.00 | 30 | 1009.5 |
| 20260508181042 | 82 | 170 | 3.0 | 3.0 | 0.00 | 0.00 | 0.00 | 28 | 1009.9 |
| 20260508180538 | 80 | 41 | 4.0 | 4.0 | 0.00 | 0.00 | 0.00 | 31 | 1009.9 |
| 20260508180035 | 79 | 356 | 2.0 | 4.0 | 0.00 | 0.00 | 0.00 | 31 | 1009.9 |
| 20260508175531 | 80 | 297 | 3.0 | 5.0 | 0.00 | 0.00 | 0.00 | 32 | 1010.0 |
| 20260508175029 | 79 | 287 | 6.0 | 6.0 | 0.00 | 0.00 | 0.00 | 32 | 1010.2 |
| 20260508174526 | 80 | 254 | 2.0 | 3.0 | 0.00 | 0.00 | 0.00 | 33 | 1010.0 |
| 20260508174023 | 78 | 95 | 0.0 | 5.0 | 0.00 | 0.00 | 0.00 | 35 | 1010.1 |
| 20260508173520 | 78 | 212 | 2.0 | 4.0 | 0.00 | 0.00 | 0.00 | 36 | 1010.1 |
| 20260508173016 | 77 | 270 | 0.0 | 6.0 | 0.00 | 0.00 | 0.00 | 37 | 1010.1 |
| 20260508172513 | 77 | 353 | 0.0 | 4.0 | 0.00 | 0.00 | 0.00 | 36 | 1010.3 |
| 20260508172009 | 77 | 77 | 2.0 | 4.0 | 0.00 | 0.00 | 0.00 | 37 | 1010.6 |
| 20260508171506 | 78 | 135 | 0.0 | 3.0 | 0.00 | 0.00 | 0.00 | 37 | 1010.7 |
| 20260508171003 | 77 | 180 | 0.0 | 4.0 | 0.00 | 0.00 | 0.00 | 36 | 1010.7 |
| 20260508170500 | 75 | 168 | 2.0 | 5.0 | 0.00 | 0.00 | 0.00 | 33 | 1010.7 |
| 20260508165957 | 76 | 68 | 2.0 | 3.0 | 0.00 | 0.00 | 0.00 | 41 | 1010.6 |
| 20260508165455 | 76 | 250 | 3.0 | 5.0 | 0.00 | 0.00 | 0.00 | 43 | 1010.7 |
| 20260508164950 | 76 | 19 | 0.0 | 3.0 | 0.00 | 0.00 | 0.00 | 45 | 1010.6 |
| 20260508164448 | 75 | 108 | 2.0 | 3.0 | 0.00 | 0.00 | 0.00 | 45 | 1010.8 |
| 20260508163944 | 74 | 123 | 2.0 | 4.0 | 0.00 | 0.00 | 0.00 | 47 | 1010.7 |
| 20260508163442 | 74 | 225 | 2.0 | 5.0 | 0.00 | 0.00 | 0.00 | 48 | 1011.0 |
| 20260508162938 | 73 | 176 | 2.0 | 6.0 | 0.00 | 0.00 | 0.00 | 50 | 1010.9 |
| 20260508162436 | 72 | 148 | 2.0 | 7.0 | 0.00 | 0.00 | 0.00 | 50 | 1010.8 |
| 20260508161932 | 71 | 231 | 2.0 | 5.0 | 0.00 | 0.00 | 0.00 | 51 | 1011.0 |
| 20260508161429 | 71 | 163 | 5.0 | 6.0 | 0.00 | 0.00 | 0.00 | 53 | 1010.9 |
| 20260508160927 | 71 | 225 | 3.0 | 6.0 | 0.00 | 0.00 | 0.00 | 52 | 1011.0 |
| 20260508160426 | 70 | 203 | 1.0 | 9.0 | 0.00 | 0.00 | 0.00 | 52 | 1011.2 |
| 20260508155921 | 71 | 164 | 4.0 | 6.0 | 0.00 | 0.00 | 0.00 | 54 | 1010.9 |
| 20260508155418 | 69 | 225 | 2.0 | 7.0 | 0.00 | 0.00 | 0.00 | 56 | 1011.1 |
| 20260508154915 | 69 | 164 | 4.0 | 8.0 | 0.00 | 0.00 | 0.00 | 56 | 1011.1 |
| 20260508154413 | 70 | 158 | 3.0 | 5.0 | 0.00 | 0.00 | 0.00 | 57 | 1011.0 |
| 20260508153909 | 68 | 164 | 3.0 | 8.0 | 0.00 | 0.00 | 0.00 | 58 | 1011.2 |
| 20260508153406 | 67 | 170 | 3.0 | 7.0 | 0.00 | 0.00 | 0.00 | 59 | 1011.1 |
| 20260508152902 | 68 | 158 | 4.0 | 7.0 | 0.00 | 0.00 | 0.00 | 59 | 1011.3 |
| 20260508152359 | 67 | 157 | 4.0 | 8.0 | 0.00 | 0.00 | 0.00 | 59 | 1011.4 |
| 20260508151855 | 67 | 156 | 5.0 | 9.0 | 0.00 | 0.00 | 0.00 | 59 | 1011.3 |
| 20260508151353 | 66 | 255 | 2.0 | 5.0 | 0.00 | 0.00 | 0.00 | 62 | 1011.4 |
| 20260508150849 | 65 | 238 | 6.0 | 12.0 | 0.00 | 0.00 | 0.00 | 63 | 1011.3 |
| 20260508150346 | 65 | 130 | 3.0 | 8.0 | 0.00 | 0.00 | 0.00 | 64 | 1011.4 |
| 20260508145842 | 64 | 160 | 8.0 | 10.0 | 0.00 | 0.00 | 0.00 | 64 | 1011.4 |
| 20260508145338 | 65 | 185 | 4.0 | 4.0 | 0.00 | 0.00 | 0.00 | 65 | 1011.4 |
| 20260508144835 | 63 | 167 | 0.0 | 5.0 | 0.00 | 0.00 | 0.00 | 67 | 1011.4 |
| 20260508144333 | 63 | 167 | 3.0 | 6.0 | 0.00 | 0.00 | 0.00 | 68 | 1011.3 |
| 20260508143830 | 63 | 180 | 2.0 | 7.0 | 0.00 | 0.00 | 0.00 | 67 | 1011.6 |
| 20260508143327 | 62 | 215 | 1.0 | 7.0 | 0.00 | 0.00 | 0.00 | 68 | 1011.6 |
| 20260508142824 | 62 | 161 | 4.0 | 7.0 | 0.00 | 0.00 | 0.00 | 69 | 1011.6 |
| 20260508142321 | 62 | 180 | 3.0 | 7.0 | 0.00 | 0.00 | 0.00 | 70 | 1011.6 |
| 20260508141817 | 61 | 153 | 4.0 | 7.0 | 0.00 | 0.00 | 0.00 | 71 | 1011.8 |
| 20260508141314 | 61 | 199 | 3.0 | 9.0 | 0.00 | 0.00 | 0.00 | 71 | 1011.5 |
| 20260508140811 | 61 | 165 | 9.0 | 12.0 | 0.00 | 0.00 | 0.00 | 71 | 1011.3 |
| 20260508140308 | 61 | 150 | 5.0 | 6.0 | 0.00 | 0.00 | 0.00 | 72 | 1011.4 |
| 20260508135804 | 60 | 159 | 7.0 | 9.0 | 0.00 | 0.00 | 0.00 | 74 | 1011.3 |
| 20260508135300 | 60 | 176 | 8.0 | 8.0 | 0.00 | 0.00 | 0.00 | 74 | 1011.3 |
| 20260508134756 | 59 | 166 | 6.0 | 7.0 | 0.00 | 0.00 | 0.00 | 75 | 1011.4 |
| 20260508134254 | 59 | 183 | 2.0 | 6.0 | 0.00 | 0.00 | 0.00 | 76 | 1011.3 |
| 20260508133750 | 58 | 146 | 3.0 | 4.0 | 0.00 | 0.00 | 0.00 | 78 | 1011.4 |
| 20260508133248 | 57 | 178 | 3.0 | 4.0 | 0.00 | 0.00 | 0.00 | 79 | 1011.3 |
| 20260508132745 | 56 | 186 | 3.0 | 4.0 | 0.00 | 0.00 | 0.00 | 79 | 1011.2 |
| 20260508132243 | 56 | 172 | 2.0 | 4.0 | 0.00 | 0.00 | 0.00 | 79 | 1011.3 |
| 20260508131738 | 56 | 201 | 2.0 | 2.0 | 0.00 | 0.00 | 0.00 | 80 | 1011.3 |
| 20260508131235 | 56 | 103 | 1.0 | 3.0 | 0.00 | 0.00 | 0.00 | 83 | 1011.4 |
| 20260508130731 | 54 | 81 | 0.0 | 2.0 | 0.00 | 0.00 | 0.00 | 84 | 1011.3 |
| 20260508130229 | 54 | 99 | 0.0 | 0.0 | 0.00 | 0.00 | 0.00 | 86 | 1011.1 |
| 20260508125724 | 52 | 23 | 1.0 | 2.0 | 0.00 | 0.00 | 0.00 | 86 | 1011.1 |
| 20260508125221 | 51 | 41 | 0.0 | 2.0 | 0.00 | 0.00 | 0.00 | 86 | 1011.0 |
| 20260508124719 | 50 | 35 | 0.0 | 0.0 | 0.00 | 0.00 | 0.00 | 87 | 1010.9 |
| 20260508124216 | 49 | 35 | 0.0 | 0.0 | 0.00 | 0.00 | 0.00 | 87 | 1011.0 |
| 20260508123714 | 48 | 17 | 3.0 | 3.0 | 0.00 | 0.00 | 0.00 | 87 | 1010.9 |
| 20260508123212 | 49 | 12 | 1.0 | 1.0 | 0.00 | 0.00 | 0.00 | 87 | 1011.0 |
| 20260508122708 | 49 | 0 | 1.0 | 1.0 | 0.00 | 0.00 | 0.00 | 87 | 1010.9 |
| 20260508122205 | 48 | 186 | 0.0 | 1.0 | 0.00 | 0.00 | 0.00 | 88 | 1011.0 |
| 20260508121702 | 49 | 196 | 0.0 | 2.0 | 0.00 | 0.00 | 0.00 | 88 | 1011.0 |
| 20260508121201 | 49 | 173 | 0.0 | 1.0 | 0.00 | 0.00 | 0.00 | 88 | 1011.1 |
| 20260508120658 | 49 | 188 | 0.0 | 3.0 | 0.00 | 0.00 | 0.00 | 88 | 1011.1 |
| 20260508120156 | 49 | 168 | 0.0 | 2.0 | 0.00 | 0.00 | 0.00 | 88 | 1011.2 |
| 20260508115653 | 49 | 148 | 3.0 | 5.0 | 0.00 | 0.00 | 0.00 | 88 | 1011.2 |
| 20260508115150 | 50 | 164 | 5.0 | 5.0 | 0.00 | 0.00 | 0.00 | 88 | 1011.1 |
| 20260508114647 | 50 | 168 | 0.0 | 3.0 | 0.00 | 0.00 | 0.00 | 88 | 1011.0 |
| 20260508114143 | 50 | 154 | 1.0 | 2.0 | 0.00 | 0.00 | 0.00 | 88 | 1010.7 |
| 20260508113640 | 50 | 14 | 0.0 | 1.0 | 0.00 | 0.00 | 0.00 | 88 | 1010.7 |